Date,TemperatureHighF,TemperatureAvgF,TemperatureLowF,DewpointHighF,DewpointAvgF,DewpointLowF,HumidityHigh,HumidityAvg,HumidityLow,PressureMaxIn,PressureMinIn,WindSpeedMaxMPH,WindSpeedAvgMPH,GustSpeedMaxMPH,PrecipitationSumIn
2013-9-1,82.5,73.4,68.1,75.7,70.3,67.2,98,90,76,29.80,29.72,10,0,11,0.00
2013-9-2,83.0,70.7,64.2,74.6,67.8,63.3,100,91,68,29.82,29.70,17,1,18,0.01
2013-9-3,74.3,64.8,53.8,65.1,60.1,52.9,100,86,59,30.02,29.79,15,2,15,0.01
2013-9-4,76.7,62.1,51.0,63.3,56.5,50.5,100,84,53,30.11,30.01,8,1,9,0.01
2013-9-5,74.8,63.0,51.8,65.4,57.5,50.1,99,84,56,30.18,30.06,13,1,13,0.00
2013-9-6,74.2,57.4,42.8,56.6,49.5,42.3,99,79,37,30.25,30.11,8,0,8,0.01
2013-9-7,78.4,61.0,43.5,62.1,53.8,43.0,100,81,45,30.11,29.94,10,0,10,0.01
2013-9-8,80.1,68.7,59.9,71.6,64.4,58.8,97,87,70,30.01,29.89,8,0,8,0.00
2013-9-9,85.2,70.6,56.3,73.7,66.1,55.8,100,87,65,30.06,29.96,7,0,11,0.00
2013-9-10,88.2,77.6,68.6,78.5,72.3,66.8,97,85,68,30.10,30.01,14,1,14,0.00
2013-9-11,86.5,75.4,67.8,78.8,72.5,67.5,100,91,73,30.11,29.97,21,0,22,0.10
2013-9-12,78.4,70.7,63.2,74.0,69.2,62.3,99,95,83,29.97,29.75,19,1,20,0.26
2013-9-13,64.0,59.3,56.8,62.5,57.6,55.4,100,94,81,29.86,29.77,20,1,24,0.00
2013-9-14,65.5,54.3,46.1,52.5,48.3,45.3,98,82,54,30.16,30.00,3,1,9,0.00
2013-9-15,71.2,60.3,41.4,60.0,54.5,40.9,100,83,60,30.18,30.05,15,1,15,0.01
2013-9-16,68.6,59.8,52.9,59.0,56.1,50.9,98,88,66,30.28,30.03,9,0,9,0.21
2013-9-17,71.0,55.8,42.7,58.1,50.3,42.1,100,84,54,30.37,30.22,13,1,13,0.01
2013-9-18,71.9,56.7,41.9,59.4,51.7,41.1,99,85,55,30.24,30.09,6,0,6,0.01
2013-9-19,78.0,65.8,58.0,66.2,61.5,57.3,100,87,60,30.12,30.00,12,0,12,0.02
2013-9-20,77.2,67.2,57.5,71.9,65.1,56.9,100,93,81,30.01,29.80,12,0,12,0.00
2013-9-21,70.4,63.6,56.0,67.1,62.2,55.5,99,95,87,29.80,29.63,16,1,16,1.06
2013-9-22,62.4,56.1,49.0,56.3,52.0,47.3,100,87,60,30.00,29.76,12,1,12,0.00
2013-9-23,56.1,51.0,48.7,49.7,47.9,45.1,98,90,67,30.13,30.00,7,0,7,0.00
2013-9-24,70.2,55.6,37.9,56.8,49.9,37.4,100,83,56,30.11,29.95,8,0,10,0.01
2013-9-25,75.7,57.2,43.2,62.5,52.5,42.8,100,86,57,29.97,29.84,7,0,7,0.01
2013-9-26,76.0,57.7,44.1,59.9,51.0,43.6,100,82,43,30.05,29.91,8,0,8,0.00
2013-9-27,75.1,57.1,41.7,59.7,50.9,41.2,100,83,48,30.17,30.05,6,0,8,0.01
2013-9-28,73.9,58.1,43.8,60.9,52.0,43.3,100,82,54,30.24,30.13,9,0,9,0.01
2013-9-29,74.9,59.9,45.9,62.5,54.3,44.8,99,84,58,30.13,29.98,8,0,8,0.00
2013-9-30,71.2,60.3,50.5,64.0,57.7,49.9,99,92,73,30.03,29.96,9,0,9,0.00